Date String (YYYY-MM-DD hh:mm:ss) UTC,Instrument flags,Ambient pressure (hPa),Sample flow (lpm),Bypass flow (lpm),Sample temperature (°C),Ambient temperature (°C),ASC tube jacket temperature (°C),LED temperature (°C),Box temperature (°C),Sample RH (%),Span deviation,Mass concentration (μg/m³),Mass concentration (μg/m³),Mass concentration (μg/m³)
DateTimeUTC,F1_M11,P_M11,Q1_M11,Q2_M11,T1_M11,T2_M11,T3_M11,T4_M11,T5_M11,U1_M11,ZSPAN_M11,X0_M11,X2_M11,X1_M11
2023-02-07 04:00:00,,0826.5,4.97,0.00,21.5,20.6,00.0,30.3,23.2,10.1,0000.0,0003.34,0001.00,0000.71
2023-02-07 04:01:00,,0826.5,4.97,0.00,21.5,20.3,00.0,30.3,23.2,10.0,0000.0,0003.28,0000.98,0000.72
2023-02-07 04:02:00,,0826.5,5.01,0.00,21.5,20.1,00.0,30.3,23.1,10.0,0000.0,0002.95,0000.99,0000.73
2023-02-07 04:03:00,,0826.5,4.96,0.00,21.4,19.9,00.0,30.3,23.1,09.9,0000.0,0002.37,0000.97,0000.74
2023-02-07 04:04:00,,0826.5,5.01,0.00,21.4,19.8,00.0,30.3,23.0,09.8,0000.0,0002.37,0000.97,0000.76
2023-02-07 04:05:00,,0826.5,4.99,0.00,21.4,19.6,00.0,30.3,23.0,10.2,0000.0,0002.25,0000.93,0000.77
2023-02-07 04:06:00,,0826.5,5.01,0.00,21.4,19.5,00.0,30.3,22.9,10.1,0000.0,0002.16,0000.92,0000.78
2023-02-07 04:07:00,,0826.5,4.98,0.00,21.3,19.5,00.0,30.3,22.9,09.7,0000.0,0002.08,0000.93,0000.79
2023-02-07 04:08:00,,0826.5,5.00,0.00,21.3,19.4,00.0,30.3,22.9,09.5,0000.0,0002.08,0000.94,0000.81
2023-02-07 04:09:00,,0826.4,4.99,0.00,21.3,19.4,00.0,30.3,22.9,09.6,0000.0,0002.92,0000.96,0000.83
2023-02-07 04:10:00,,0826.5,5.04,0.00,21.3,19.4,00.0,30.2,22.8,09.3,0000.0,0002.68,0000.94,0000.83
2023-02-07 04:11:00,,0826.5,5.00,0.00,21.2,19.4,00.0,30.2,22.8,09.3,0000.0,0002.42,0000.92,0000.84
2023-02-07 04:12:00,,0826.5,4.98,0.00,21.2,19.4,00.0,30.2,22.8,09.3,0000.0,0002.36,0000.91,0000.84
2023-02-07 04:13:00,,0826.5,5.01,0.00,21.2,19.3,00.0,30.2,22.8,09.2,0000.0,0002.30,0000.90,0000.83
2023-02-07 04:14:00,,0826.5,5.02,0.00,21.2,19.8,00.0,30.1,22.8,09.2,0000.0,0002.34,0000.92,0000.84
2023-02-07 04:15:00,,0826.5,5.01,0.00,21.3,21.1,00.0,30.1,23.2,09.2,0000.0,0002.35,0000.92,0000.84
2023-02-07 04:16:00,,0826.5,5.00,0.00,21.4,22.3,00.0,30.1,23.4,09.2,0000.0,0002.37,0000.93,0000.84
2023-02-07 04:17:00,,0826.5,4.98,0.00,21.5,22.4,00.0,30.2,23.6,09.3,0000.0,0002.40,0000.94,0000.85
2023-02-07 04:18:00,,0826.5,5.04,0.00,21.6,21.9,00.0,30.3,23.5,09.2,0000.0,0002.49,0000.96,0000.85
2023-02-07 04:19:00,,0826.5,5.02,0.00,21.6,21.4,00.0,30.3,23.5,09.1,0000.0,0002.51,0000.95,0000.85
2023-02-07 04:20:00,,0826.5,4.98,0.00,21.6,21.1,00.0,30.3,23.4,09.1,0000.0,0001.55,0000.93,0000.84
2023-02-07 04:21:00,,0826.5,4.98,0.00,21.6,20.9,00.0,30.4,23.4,09.0,0000.0,0001.47,0000.93,0000.84
2023-02-07 04:22:00,,0826.6,5.00,0.00,21.6,20.8,00.0,30.4,23.4,08.7,0000.0,0001.48,0000.94,0000.85
2023-02-07 04:23:00,,0826.5,5.05,0.00,21.7,20.7,00.0,30.4,23.4,08.7,0000.0,0001.45,0000.93,0000.85
2023-02-07 04:24:00,,0826.6,4.99,0.00,21.7,20.6,00.0,30.4,23.4,08.7,0000.0,0001.40,0000.91,0000.84
2023-02-07 04:25:00,,0826.5,5.02,0.00,21.7,20.5,00.0,30.4,23.4,09.0,0000.0,0001.43,0000.92,0000.84
2023-02-07 04:26:00,,0826.5,5.04,0.00,21.7,20.5,00.0,30.4,23.4,09.0,0000.0,0001.48,0000.94,0000.85
2023-02-07 04:27:00,,0826.6,4.97,0.00,21.7,20.4,00.0,30.5,23.3,08.7,0000.0,0001.46,0000.93,0000.85
2023-02-07 04:28:00,,0826.5,5.03,0.00,21.7,20.3,00.0,30.5,23.3,08.7,0000.0,0001.42,0000.91,0000.85
2023-02-07 04:29:00,,0826.5,4.99,0.00,21.6,20.3,00.0,30.5,23.3,08.8,0000.0,0001.35,0000.91,0000.84
2023-02-07 04:30:00,,0826.5,4.96,0.00,21.6,20.2,00.0,30.5,23.3,08.6,0000.0,0001.32,0000.90,0000.83
2023-02-07 04:31:00,,0826.5,5.06,0.00,21.6,20.2,00.0,30.5,23.3,09.1,0000.0,0001.34,0000.90,0000.82
2023-02-07 04:32:00,,0826.5,4.98,0.00,21.6,20.2,00.0,30.5,23.3,09.2,0000.0,0001.34,0000.90,0000.81
2023-02-07 04:33:00,,0826.6,4.98,0.00,21.6,20.2,00.0,30.5,23.4,09.2,0000.0,0001.35,0000.89,0000.79
2023-02-07 04:34:00,,0826.7,4.98,0.00,21.6,20.2,00.0,30.5,23.4,09.1,0000.0,0001.37,0000.88,0000.78
2023-02-07 04:35:00,,0826.5,5.01,0.00,21.6,20.2,00.0,30.5,23.3,08.7,0000.0,0001.36,0000.88,0000.77
2023-02-07 04:36:00,,0826.5,5.02,0.00,21.6,20.2,00.0,30.5,23.3,08.6,0000.0,0001.32,0000.86,0000.76
2023-02-07 04:37:00,,0826.5,4.98,0.00,21.6,20.2,00.0,30.5,23.3,08.5,0000.0,0001.23,0000.83,0000.74
2023-02-07 04:38:00,,0826.5,5.01,0.00,21.6,20.2,00.0,30.5,23.3,09.0,0000.0,0001.21,0000.81,0000.72
2023-02-07 04:39:00,,0826.6,5.02,0.00,21.6,20.2,00.0,30.5,23.3,09.1,0000.0,0001.22,0000.82,0000.72
2023-02-07 04:40:00,,0826.6,4.99,0.00,21.6,20.3,00.0,30.5,23.3,08.8,0000.0,0001.18,0000.79,0000.70
2023-02-07 04:41:00,,0826.6,4.96,0.00,21.6,20.2,00.0,30.5,23.3,08.8,0000.0,0001.22,0000.80,0000.71
2023-02-07 04:42:00,,0826.7,5.00,0.00,21.6,20.2,00.0,30.5,23.3,08.8,0000.0,0001.22,0000.81,0000.71
2023-02-07 04:43:00,,0826.7,5.01,0.00,21.6,20.3,00.0,30.5,23.3,08.7,0000.0,0001.24,0000.83,0000.72
2023-02-07 04:44:00,,0826.7,5.01,0.00,21.6,20.3,00.0,30.5,23.3,08.6,0000.0,0001.24,0000.83,0000.73
2023-02-07 04:45:00,,0826.7,4.99,0.00,21.6,20.3,00.0,30.5,23.3,08.6,0000.0,0001.23,0000.83,0000.73
2023-02-07 04:46:00,,0826.7,4.99,0.00,21.6,20.3,00.0,30.5,23.4,08.6,0000.0,0001.22,0000.83,0000.74
2023-02-07 04:47:00,,0826.7,5.03,0.00,21.6,20.3,00.0,30.5,23.4,09.7,0000.0,0001.21,0000.84,0000.75
2023-02-07 04:48:00,,0826.7,5.02,0.00,21.7,20.8,00.0,30.4,23.5,10.3,0000.0,0001.39,0000.90,0000.79
2023-02-07 04:49:00,,0826.8,4.99,0.00,21.8,21.9,00.0,30.4,23.8,10.1,0000.0,0001.49,0000.97,0000.82
2023-02-07 04:50:00,,0826.7,5.03,0.00,21.9,22.7,00.0,30.5,24.0,11.3,0000.0,0001.71,0001.11,0000.93
2023-02-07 04:51:00,,0826.7,5.02,0.00,22.0,22.5,00.0,30.5,24.0,12.2,0000.0,0002.24,0001.43,0001.17
2023-02-07 04:52:00,,0826.7,4.96,0.00,22.0,22.1,00.0,30.6,24.0,10.9,0000.0,0002.45,0001.58,0001.30
2023-02-07 04:53:00,,0826.8,5.03,0.00,22.0,21.8,00.0,30.7,23.9,10.7,0000.0,0002.74,0001.71,0001.40
2023-02-07 04:54:00,,0826.8,5.00,0.00,22.1,21.5,00.0,30.7,23.9,10.5,0000.0,0002.87,0001.80,0001.47
2023-02-07 04:55:00,,0826.8,5.04,0.00,22.1,21.3,00.0,30.7,23.9,12.1,0000.0,0003.25,0002.10,0001.70
2023-02-07 04:56:00,,0826.8,5.00,0.00,22.1,21.2,00.0,30.7,23.9,12.4,0000.0,0003.93,0002.48,0001.99
2023-02-07 04:57:00,,0826.8,4.96,0.00,22.1,21.0,00.0,30.8,23.9,11.9,0000.0,0004.56,0002.78,0002.20
2023-02-07 04:58:00,,0826.8,5.07,0.00,22.1,21.0,00.0,30.8,23.9,11.7,0000.0,0006.73,0003.03,0002.39
2023-02-07 04:59:00,,0826.8,4.96,0.00,22.1,20.9,00.0,30.8,23.9,11.5,0000.0,0006.87,0003.15,0002.53
